Location: Torch Lake Township
(45.0753°N, 85.3586°W)
Time: 02:49:28
(UTC-05:00)

Amateur Radio Satellites - All Passes

Search period start: 08 December 2016 02:19
Search period end: 09 December 2016 02:19
Location: Torch Lake Township, 45.0753°N, 85.3586°W

Satellite Date Start Highest point End Downlink Frequencies (MHz)
Time Altitude Azimuth
PHONESAT 2.4 08 Dec 02:36:16 02:38:38 29° 183° (S) 02:41:00 2401.200-2431.200
Oscar 19 08 Dec 02:38:48 02:43:58 69° 288° (WNW) 02:49:08 437.125/150
ITUPSAT 1 08 Dec 02:41:47 02:46:32 69° 257° (WSW) 02:51:20 437.325
O/OREOS (USA 219) 08 Dec 02:46:13 02:50:06 29° 255° (WSW) 02:53:58 437.305
Gurwin Techsat 1B 08 Dec 02:51:35 02:56:57 83° 104° (ESE) 03:02:16 435.225
GONETS M04 08 Dec 02:56:08 03:03:37 31° 294° (WNW) 03:11:09
MOZHAYETS 4 08 Dec 03:00:20 03:04:43 47° 71° (ENE) 03:09:07
Cosmos 2499 08 Dec 03:01:04 03:08:10 27° 297° (WNW) 03:15:27 435.465 / 435.565
SO-50 08 Dec 03:08:01 03:11:08 18° 34° (NE) 03:14:13 436.795
ITAMSAT 1 08 Dec 03:12:05 03:16:39 30° 96° (E) 03:21:11 435.822/435.867
CUBESAT XI-V 08 Dec 03:12:34 03:13:38 11° 57° (ENE) 03:14:43 437.345
KKS-1 08 Dec 03:15:32 03:19:27 30° 67° (ENE) 03:23:23 437.445
STARS 08 Dec 03:16:56 03:19:40 16° 61° (ENE) 03:22:25 437.465
AUBIESAT-1 08 Dec 03:33:54 03:36:23 15° 266° (W) 03:38:58 437.475
AO-7 08 Dec 03:38:18 03:45:54 37° 97° (E) 03:53:26 29.400- 29.500
AO-85 08 Dec 03:42:45 03:46:44 26° 317° (NW) 03:50:30 145.980
SWISSCUBE 08 Dec 03:49:10 03:51:51 15° 270° (W) 03:54:33 437.505
BEESAT 08 Dec 03:52:52 03:55:38 15° 270° (W) 03:58:25 436.000
PHONESAT 2.4 08 Dec 04:11:42 04:13:25 16° 199° (SSW) 04:15:07 2401.200-2431.200
Oscar 19 08 Dec 04:21:02 04:22:20 11° 306° (NW) 04:23:38 437.125/150
YUBILEINY 08 Dec 04:32:13 04:37:47 18° 56° (NE) 04:43:19 435.215
Gurwin Techsat 1B 08 Dec 04:33:05 04:36:13 16° 302° (WNW) 04:39:21 435.225
MOZHAYETS 4 08 Dec 04:38:48 04:42:07 19° 268° (W) 04:45:27
BRITE-PL 08 Dec 04:40:11 04:43:46 17° 89° (E) 04:47:25 437.365/2234.400
CUBESAT XI-V 08 Dec 04:45:39 04:50:14 82° 77° (ENE) 04:54:51 437.345
SO-50 08 Dec 04:47:41 04:52:16 89° 236° (SW) 04:56:44 436.795
STARS 08 Dec 04:51:11 04:55:33 60° 259° (W) 04:59:57 437.465
ITAMSAT 1 08 Dec 04:51:25 04:56:10 37° 293° (WNW) 05:00:52 435.822/435.867
KKS-1 08 Dec 04:52:04 04:55:58 29° 264° (W) 04:59:54 437.445
BEESAT 3 08 Dec 05:09:19 05:13:10 61° 122° (ESE) 05:17:05 437.485
AO-7 08 Dec 05:30:51 05:38:59 57° 297° (WNW) 05:47:05 29.400- 29.500
GOMX 1 08 Dec 05:42:09 05:46:48 28° 93° (E) 05:51:26 467.674
BEESAT 2 08 Dec 05:43:15 05:47:09 64° 122° (ESE) 05:51:06 435.950
DOVE 4 08 Dec 05:43:25 05:45:16 12° 85° (E) 05:47:06 437.250
HORYU 2 08 Dec 05:54:33 05:58:53 50° 100° (E) 06:03:10 437.375
STRAND 1 08 Dec 06:02:56 06:07:02 25° 63° (ENE) 06:11:09 437.568
Cosmos 2504 08 Dec 06:10:06 06:17:53 33° 66° (ENE) 06:25:16 435.465 / 435.565
BRITE-PL 08 Dec 06:17:14 06:22:41 74° 286° (WNW) 06:28:20 437.365/2234.400
CUBESAT XI-V 08 Dec 06:27:00 06:28:13 11° 273° (W) 06:29:27 437.345
YUBILEINY 08 Dec 06:27:28 06:36:20 75° 80° (E) 06:45:10 435.215
SO-50 08 Dec 06:30:47 06:31:58 11° 253° (WSW) 06:33:08 436.795
CUTE-I 08 Dec 06:41:17 06:46:24 44° 99° (E) 06:51:26 437.470
CINEMA 3 08 Dec 06:46:01 06:47:00 11° 85° (E) 06:47:57 145.822/145.860
BEESAT 3 08 Dec 06:48:21 06:51:10 18° 321° (NW) 06:54:00 437.485
RS-15 08 Dec 06:49:10 06:59:43 41° 107° (ESE) 07:10:40 29.354- 29.394
NOAA 15 08 Dec 06:56:28 07:01:45 66° 103° (ESE) 07:07:00 137.62
AIST 2 08 Dec 06:57:04 06:57:16 10° 107° (ESE) 06:57:28 435.215
Cosmos 2491 08 Dec 06:58:22 07:06:51 56° 90° (E) 07:15:19 435.465 / 435.565
Cubesat XI-IV 08 Dec 07:07:53 07:13:15 74° 103° (ESE) 07:18:33 437.490
LilacSat-2 08 Dec 07:09:07 07:12:55 77° 284° (WNW) 07:16:40 437.200
NOAA 18 08 Dec 07:09:47 07:15:10 49° 100° (E) 07:20:29 137.9125
AIST 1 08 Dec 07:14:26 07:18:52 89° 294° (WNW) 07:23:16
DOVE 4 08 Dec 07:18:24 07:23:44 86° 103° (ESE) 07:28:53 437.250
GOMX 1 08 Dec 07:19:48 07:25:00 46° 290° (WNW) 07:30:13 467.674
BEESAT 2 08 Dec 07:22:31 07:25:19 18° 321° (NW) 07:28:10 435.950
HO-68 08 Dec 07:22:45 07:28:18 23° 91° (E) 07:33:49 435.675
AO-7 08 Dec 07:25:32 07:30:00 16° 319° (NW) 07:34:29 29.400- 29.500
HORYU 2 08 Dec 07:31:59 07:35:05 19° 298° (WNW) 07:38:08 437.375
STRAND 1 08 Dec 07:40:59 07:45:56 47° 261° (W) 07:50:54 437.568
CUTE 1.7 + AOD 2 08 Dec 07:47:35 07:51:07 25° 94° (E) 07:54:38 437.475
BRITE-PL 08 Dec 07:58:00 08:00:18 13° 303° (WNW) 08:02:39 437.365/2234.400
AAUSAT CUBESAT 2 08 Dec 08:01:02 08:02:53 13° 89° (E) 08:04:45 437.432
Cosmos 2504 08 Dec 08:03:14 08:11:51 62° 269° (W) 08:19:59 435.465 / 435.565
CANX-2 08 Dec 08:05:44 08:09:48 46° 99° (E) 08:13:52 2200.000
PRISM 08 Dec 08:11:35 08:15:00 27° 67° (ENE) 08:18:28 437.425
CINEMA 3 08 Dec 08:20:02 08:24:53 88° 284° (WNW) 08:29:28 145.822/145.860
CUTE-I 08 Dec 08:21:45 08:26:13 28° 297° (WNW) 08:30:39 437.470
CUBEBUG 2 08 Dec 08:22:34 08:26:12 25° 93° (E) 08:29:44 437.445
YUBILEINY 08 Dec 08:25:27 08:32:14 26° 280° (W) 08:39:02 435.215
ANTELSAT 08 Dec 08:25:28 08:26:44 11° 58° (ENE) 08:28:00 437.575/2403.000
SEEDS 08 Dec 08:26:10 08:30:12 45° 99° (E) 08:34:14 437.485
AIST 2 08 Dec 08:30:55 08:35:02 87° 304° (NW) 08:39:13 435.215
COMPASS 1 08 Dec 08:32:08 08:35:58 35° 97° (E) 08:39:48 437.405
Oscar 11 08 Dec 08:34:50 08:36:30 12° 89° (E) 08:38:10 145.826/435.025
NOAA 15 08 Dec 08:37:20 08:41:01 20° 300° (WNW) 08:44:43 137.62
Cubesat XI-IV 08 Dec 08:49:14 08:52:43 18° 302° (WNW) 08:56:10 437.490
NOAA 18 08 Dec 08:50:59 08:55:32 27° 298° (WNW) 09:00:05 137.9125
AO-85 08 Dec 08:52:10 08:54:02 13° 31° (NNE) 08:55:51 145.980
Cosmos 2491 08 Dec 08:56:12 09:04:05 36° 292° (WNW) 09:11:59 435.465 / 435.565
DOVE 4 08 Dec 08:57:40 09:00:39 15° 302° (WNW) 09:03:35 437.250
UWE-3 08 Dec 08:59:40 09:03:43 39° 97° (E) 09:07:39 435.000/436.395/437.385
RS-15 08 Dec 08:59:40 09:11:31 69° 312° (NW) 09:23:54 29.354- 29.394
HO-68 08 Dec 09:09:28 09:16:40 73° 290° (WNW) 09:23:49 435.675
CUTE 1.7 + AOD 2 08 Dec 09:23:15 09:26:57 30° 292° (WNW) 09:30:40 437.475
UNISAT 6 08 Dec 09:27:01 09:31:24 41° 70° (ENE) 09:35:45 437.425
AAUSAT CUBESAT 2 08 Dec 09:34:39 09:38:45 61° 286° (WNW) 09:42:50 437.432
ZACube-1 08 Dec 09:35:09 09:39:20 58° 100° (E) 09:43:26 437.345
FUNcube-1 08 Dec 09:41:25 09:45:36 63° 100° (E) 09:49:42 145.935
CANX-2 08 Dec 09:42:27 09:45:19 18° 296° (WNW) 09:48:13 2200.000
PRISM 08 Dec 09:46:44 09:50:14 28° 264° (W) 09:53:47 437.425
JAS-2 08 Dec 09:46:54 09:51:13 21° 61° (ENE) 09:55:15 435.910
DANDE 08 Dec 09:53:50 09:57:03 22° 96° (E) 09:59:44 436.750
TIGRISAT 08 Dec 09:55:54 10:00:34 74° 75° (ENE) 10:05:11 435.000
QB50P1 08 Dec 09:57:35 09:58:24 10° 58° (ENE) 09:59:14 145.935-145.965
ANTELSAT 08 Dec 09:58:01 10:02:42 82° 75° (ENE) 10:07:20 437.575/2403.000
CUBEBUG 2 08 Dec 09:58:57 10:02:52 32° 292° (WNW) 10:06:40 437.445
CINEMA 3 08 Dec 09:59:20 10:01:11 12° 303° (WNW) 10:03:00 145.822/145.860
Cosmos 2504 08 Dec 10:00:18 10:03:14 12° 290° (WNW) 10:06:08 435.465 / 435.565
SEEDS 08 Dec 10:02:42 10:05:35 18° 296° (WNW) 10:08:28 437.485
COMPASS 1 08 Dec 10:08:05 10:11:20 22° 294° (WNW) 10:14:34 437.405
Oscar 11 08 Dec 10:08:49 10:13:06 68° 286° (WNW) 10:17:22 145.826/435.025
AIST 2 08 Dec 10:11:38 10:14:09 15° 325° (NW) 10:16:41 435.215
DELFI C3 08 Dec 10:11:48 10:15:40 47° 99° (E) 10:19:31 145.870
POPSAT HIP 1 08 Dec 10:17:15 10:19:57 16° 62° (ENE) 10:22:39 437.405
CUSAT 1 08 Dec 10:26:30 10:28:58 25° 285° (WNW) 10:31:14 437.405
AO-85 08 Dec 10:31:13 10:35:14 72° 53° (NE) 10:39:05 145.980
UWE-3 08 Dec 10:36:42 10:39:55 21° 296° (WNW) 10:43:04 435.000/436.395/437.385
HUMSAT D 08 Dec 10:41:13 10:45:12 52° 100° (E) 10:49:12 437.325/437.525
PCSat 08 Dec 10:42:22 10:46:37 24° 108° (ESE) 10:50:54 145.827
BUGSAT 1 08 Dec 10:43:49 10:45:03 11° 59° (ENE) 10:46:18 437.445
Cosmos 2499 08 Dec 10:55:17 11:02:55 33° 66° (ENE) 11:10:03 435.465 / 435.565
HO-68 08 Dec 10:58:54 11:03:12 17° 311° (NW) 11:07:30 435.675
ESTCUBE 1 08 Dec 11:00:33 11:02:48 13° 89° (E) 11:05:02 437.505/2401.250
UNISAT 6 08 Dec 11:04:32 11:08:14 23° 267° (W) 11:11:56 437.425
GONETS M04 08 Dec 11:05:27 11:13:18 36° 68° (ENE) 11:21:08
NANOSAT C BR1 08 Dec 11:08:21 11:12:28 49° 72° (ENE) 11:16:36 145.865
ZACube-1 08 Dec 11:12:47 11:15:08 15° 299° (WNW) 11:17:28 437.345
RS-15 08 Dec 11:16:07 11:26:48 34° 342° (NNW) 11:37:43 29.354- 29.394
CUBEBUG 1 08 Dec 11:16:20 11:17:58 12° 88° (E) 11:19:36 437.445
QB50P2 08 Dec 11:16:33 11:20:48 70° 74° (ENE) 11:25:05 145.880/145.840
POLYITAN 1 08 Dec 11:17:00 11:21:16 67° 74° (ENE) 11:25:33 437.675
FUNcube-1 08 Dec 11:19:12 11:21:20 14° 299° (WNW) 11:23:26 145.935
DUCHIFAT 1 08 Dec 11:29:03 11:33:19 77° 75° (ENE) 11:37:36 145.980
QB50P1 08 Dec 11:29:11 11:33:28 89° 64° (ENE) 11:37:47 145.935-145.965
JAS-2 08 Dec 11:29:36 11:35:55 69° 257° (WSW) 11:41:32 435.910
VELOX 1 08 Dec 11:33:39 11:35:21 12° 89° (E) 11:37:05 145.980
TIGRISAT 08 Dec 11:35:38 11:37:44 13° 271° (W) 11:39:50 435.000
DANDE 08 Dec 11:36:29 11:39:40 22° 284° (WNW) 11:42:19 436.750
ANTELSAT 08 Dec 11:38:24 11:39:57 11° 272° (W) 11:41:30 437.575/2403.000
DELFI C3 08 Dec 11:47:39 11:50:07 16° 296° (WNW) 11:52:36 145.870
BEESAT 3 08 Dec 11:48:15 11:50:00 12° 33° (NNE) 11:51:44 437.485
SPROUT 08 Dec 11:48:19 11:49:29 11° 88° (E) 11:50:38 437.525
POPSAT HIP 1 08 Dec 11:51:06 11:55:18 54° 260° (W) 11:59:33 437.405
50 SAT 08 Dec 12:12:23 12:15:13 22° 95° (E) 12:18:03 437.505
AO-85 08 Dec 12:13:58 12:14:58 11° 252° (WSW) 12:15:58 145.980
BUGSAT 1 08 Dec 12:15:30 12:19:45 86° 255° (WSW) 12:24:03 437.445
HUMSAT D 08 Dec 12:18:02 12:20:25 15° 297° (WNW) 12:22:48 437.325/437.525
Oscar 19 08 Dec 12:19:17 12:23:41 30° 65° (ENE) 12:28:07 437.125/150
BEESAT 2 08 Dec 12:22:44 12:24:43 13° 34° (NNE) 12:26:40 435.950
PCSat 08 Dec 12:24:19 12:29:38 56° 306° (NW) 12:35:00 145.827
AISAT 08 Dec 12:31:10 12:35:32 49° 100° (E) 12:39:52 437.250
ESTCUBE 1 08 Dec 12:35:33 12:40:03 67° 286° (WNW) 12:44:32 437.505/2401.250
Gurwin Techsat 1B 08 Dec 12:36:21 12:40:30 24° 62° (ENE) 12:44:41 435.225
NANOSAT C BR1 08 Dec 12:45:45 12:48:27 16° 269° (W) 12:51:11 145.865
Cosmos 2499 08 Dec 12:48:11 12:56:34 59° 269° (W) 13:04:19 435.465 / 435.565
CUBEBUG 1 08 Dec 12:50:19 12:54:46 74° 285° (WNW) 12:59:11 437.445
AO-7 08 Dec 12:51:34 12:56:10 16° 42° (NE) 13:00:49 29.400- 29.500
QB50P2 08 Dec 12:55:31 12:57:05 12° 271° (W) 12:58:38 145.880/145.840
POLYITAN 1 08 Dec 12:55:42 12:57:30 12° 271° (W) 12:59:19 437.675
TISAT 1 08 Dec 13:01:05 13:02:07 11° 88° (E) 13:03:10 437.305
GONETS M04 08 Dec 13:02:05 13:10:31 57° 269° (W) 13:18:57
VELOX 1 08 Dec 13:07:51 13:12:20 74° 286° (WNW) 13:16:47 145.980
DUCHIFAT 1 08 Dec 13:08:38 13:09:31 11° 272° (W) 13:10:24 145.980
DX 1 08 Dec 13:12:26 13:16:50 68° 102° (ESE) 13:21:12 434.975-435.025
UKube-1 08 Dec 13:14:26 13:18:43 53° 101° (E) 13:22:56 .
SPROUT 08 Dec 13:21:37 13:25:55 74° 286° (WNW) 13:30:11 437.525
BEESAT 3 08 Dec 13:24:23 13:28:23 69° 52° (NE) 13:32:21 437.485
RS-15 08 Dec 13:33:16 13:44:05 33° 17° (NNE) 13:54:50 29.354- 29.394
50 SAT 08 Dec 13:45:31 13:48:28 25° 292° (WNW) 13:51:27 437.505
Oscar 19 08 Dec 13:58:07 14:02:53 38° 263° (W) 14:07:42 437.125/150
BEESAT 2 08 Dec 13:59:10 14:03:13 73° 53° (NE) 14:07:14 435.950
AISAT 08 Dec 14:08:28 14:11:39 19° 297° (WNW) 14:14:48 437.250
SWISSCUBE 08 Dec 14:08:32 14:11:03 14° 90° (E) 14:13:33 437.505
PCSat 08 Dec 14:11:24 14:14:16 14° 329° (NNW) 14:17:08 145.827
BEESAT 08 Dec 14:12:21 14:14:47 14° 89° (E) 14:17:13 436.000
Gurwin Techsat 1B 08 Dec 14:14:56 14:20:07 53° 260° (W) 14:25:20 435.225
ITAMSAT 1 08 Dec 14:31:45 14:36:52 58° 71° (ENE) 14:41:59 435.822/435.867
TISAT 1 08 Dec 14:34:02 14:38:16 74° 286° (WNW) 14:42:27 437.305
AO-7 08 Dec 14:39:11 14:47:16 59° 64° (ENE) 14:55:25 29.400- 29.500
ITUPSAT 1 08 Dec 14:40:38 14:44:36 26° 95° (E) 14:48:33 437.325
Cosmos 2499 08 Dec 14:45:44 14:47:36 11° 291° (WNW) 14:49:26 435.465 / 435.565
DX 1 08 Dec 14:50:07 14:52:29 14° 300° (WNW) 14:54:52 434.975-435.025
UKube-1 08 Dec 14:51:30 14:54:21 17° 298° (WNW) 14:57:11 .
ISS 08 Dec 15:02:08 15:03:33 12° 132° (SE) 15:04:59 145.825
BEESAT 3 08 Dec 15:03:44 15:05:28 13° 250° (WSW) 15:07:12 437.485
AUBIESAT-1 08 Dec 15:08:27 15:12:36 33° 101° (E) 15:16:34 437.475
AIST 2 08 Dec 15:12:41 15:15:40 18° 38° (NE) 15:18:39 435.215
O/OREOS (USA 219) 08 Dec 15:21:31 15:25:10 24° 103° (ESE) 15:28:47 437.305
M-CUBED/EXP-1 PRIME 08 Dec 15:22:46 15:27:24 57° 105° (ESE) 15:31:48 437.505
BEESAT 2 08 Dec 15:38:52 15:40:26 12° 251° (WSW) 15:42:01 435.950
SWISSCUBE 08 Dec 15:44:35 15:49:19 69° 287° (WNW) 15:54:02 437.505
RS-15 08 Dec 15:47:08 15:59:31 67° 47° (NE) 16:11:33 29.354- 29.394
BEESAT 08 Dec 15:48:19 15:53:04 71° 287° (WNW) 15:57:48 436.000
BRITE-PL 08 Dec 15:53:42 15:56:51 19° 61° (ENE) 16:00:10 437.365/2234.400
ITAMSAT 1 08 Dec 16:12:57 16:16:42 20° 268° (W) 16:20:27 435.822/435.867
ITUPSAT 1 08 Dec 16:18:08 16:22:31 38° 292° (WNW) 16:26:54 437.325
CUTE-I 08 Dec 16:28:20 16:31:05 14° 56° (NE) 16:33:52 437.470
MOZHAYETS 4 08 Dec 16:30:00 16:34:35 85° 100° (E) 16:39:09
AO-7 08 Dec 16:33:02 16:40:24 35° 264° (W) 16:47:52 29.400- 29.500
ISS 08 Dec 16:36:18 16:39:34 82° 152° (SSE) 16:42:53 145.825
STARS 08 Dec 16:39:07 16:42:30 21° 93° (E) 16:45:49 437.465
KKS-1 08 Dec 16:40:15 16:44:34 44° 99° (E) 16:48:50 437.445
NOAA 15 08 Dec 16:40:59 16:44:37 19° 60° (ENE) 16:48:16 137.62
CUBESAT XI-V 08 Dec 16:41:00 16:44:12 18° 91° (E) 16:47:24 437.345
AUBIESAT-1 08 Dec 16:42:54 16:46:53 30° 299° (WNW) 16:50:44 437.475
DOVE 4 08 Dec 16:50:12 16:53:05 15° 58° (ENE) 16:56:01 437.250
AIST 2 08 Dec 16:50:24 16:54:38 73° 237° (WSW) 16:58:50 435.215
GOMX 1 08 Dec 16:52:13 16:56:23 31° 66° (ENE) 17:00:47 467.674
Cubesat XI-IV 08 Dec 16:53:34 16:57:40 23° 61° (ENE) 17:01:45 437.490
HORYU 2 08 Dec 16:54:05 16:58:30 60° 72° (ENE) 17:02:55 437.375
M-CUBED/EXP-1 PRIME 08 Dec 16:58:02 17:01:24 20° 304° (WNW) 17:04:41 437.505
NOAA 18 08 Dec 16:59:52 17:03:36 19° 58° (ENE) 17:07:21 137.9125
O/OREOS (USA 219) 08 Dec 17:00:04 17:04:20 39° 301° (WNW) 17:08:37 437.305
Cosmos 2491 08 Dec 17:06:20 17:13:52 31° 66° (ENE) 17:21:21 435.465 / 435.565
BRITE-PL 08 Dec 17:30:40 17:34:55 50° 262° (W) 17:39:31 437.365/2234.400
YUBILEINY 08 Dec 17:38:48 17:43:45 17° 74° (ENE) 17:48:42 435.215
CINEMA 3 08 Dec 17:48:14 17:51:04 15° 59° (ENE) 17:53:54 145.822/145.860
LilacSat-2 08 Dec 17:52:28 17:56:18 67° 74° (ENE) 18:00:07 437.200
HO-68 08 Dec 17:54:19 17:59:42 24° 54° (NE) 18:05:07 435.675
RS-15 08 Dec 18:00:17 18:11:31 44° 252° (WSW) 18:22:26 29.354- 29.394
CUTE-I 08 Dec 18:04:58 18:10:21 86° 75° (ENE) 18:15:45 437.470
MOZHAYETS 4 08 Dec 18:09:13 18:11:05 12° 301° (WNW) 18:12:56
ISS 08 Dec 18:13:23 18:16:21 30° 348° (NNW) 18:19:19 145.825
STARS 08 Dec 18:14:50 18:19:00 41° 291° (WNW) 18:23:08 437.465
CUBESAT XI-V 08 Dec 18:17:20 18:21:53 53° 288° (WNW) 18:26:26 437.345
KKS-1 08 Dec 18:17:28 18:20:49 21° 297° (WNW) 18:24:10 437.445
NOAA 15 08 Dec 18:18:42 18:23:53 66° 258° (WSW) 18:29:08 137.62
DOVE 4 08 Dec 18:25:07 18:30:01 81° 258° (WSW) 18:35:13 437.250
GOMX 1 08 Dec 18:30:13 18:34:24 32° 266° (W) 18:38:54 467.674
Cubesat XI-IV 08 Dec 18:32:03 18:37:20 57° 259° (W) 18:42:39 437.490
HORYU 2 08 Dec 18:32:52 18:35:25 15° 269° (W) 18:37:59 437.375
NOAA 18 08 Dec 18:38:06 18:43:38 75° 256° (WSW) 18:49:14 137.9125
CUTE 1.7 + AOD 2 08 Dec 18:42:16 18:45:38 24° 67° (ENE) 18:49:02 437.475
Cosmos 2504 08 Dec 18:51:40 18:58:09 25° 79° (ENE) 19:04:51 435.465 / 435.565
AAUSAT CUBESAT 2 08 Dec 18:53:55 18:55:27 12° 61° (ENE) 18:56:59 437.432
CANX-2 08 Dec 19:00:12 19:04:09 41° 71° (ENE) 19:08:07 2200.000
Cosmos 2491 08 Dec 19:02:46 19:11:21 65° 268° (W) 19:19:54 435.465 / 435.565
SO-50 08 Dec 19:04:47 19:08:05 19° 111° (ESE) 19:11:21 436.795
CUSAT 1 08 Dec 19:13:05 19:14:55 13° 71° (ENE) 19:16:56 437.405
SEEDS 08 Dec 19:19:35 19:23:28 39° 71° (ENE) 19:27:21 437.485
CUBEBUG 2 08 Dec 19:21:56 19:26:02 30° 67° (ENE) 19:30:05 437.445
CINEMA 3 08 Dec 19:22:32 19:27:30 81° 257° (WSW) 19:32:35 145.822/145.860
COMPASS 1 08 Dec 19:24:42 19:28:19 30° 69° (ENE) 19:31:57 437.405
PCSat 08 Dec 19:27:02 19:31:57 33° 46° (NE) 19:36:51 145.827
YUBILEINY 08 Dec 19:30:20 19:39:01 80° 96° (E) 19:47:48 435.215
Oscar 11 08 Dec 19:31:44 19:33:47 13° 61° (ENE) 19:35:50 145.826/435.025
HO-68 08 Dec 19:39:29 19:46:40 81° 254° (WSW) 19:53:54 435.675
AIST 1 08 Dec 19:45:31 19:49:40 47° 93° (E) 19:53:52
CUTE-I 08 Dec 19:48:35 19:51:06 13° 272° (W) 19:53:36 437.470
STRAND 1 08 Dec 19:49:12 19:54:10 50° 100° (E) 19:59:05 437.568
ISS 08 Dec 19:50:35 19:53:29 27° 8° (N) 19:56:22 145.825
UWE-3 08 Dec 19:57:51 20:02:15 43° 71° (ENE) 20:06:34 435.000/436.395/437.385
CUTE 1.7 + AOD 2 08 Dec 20:17:31 20:21:20 33° 264° (W) 20:25:09 437.475
NOAA 18 08 Dec 20:24:18 20:25:13 10° 274° (W) 20:26:07 137.9125
AAUSAT CUBESAT 2 08 Dec 20:26:15 20:30:21 73° 258° (WSW) 20:34:28 437.432
DANDE 08 Dec 20:27:54 20:29:26 13° 73° (ENE) 20:31:06 436.750
ZACube-1 08 Dec 20:32:09 20:36:37 59° 73° (ENE) 20:41:01 437.345
CANX-2 08 Dec 20:37:13 20:40:12 19° 268° (W) 20:43:11 2200.000
FUNcube-1 08 Dec 20:38:06 20:42:34 63° 74° (ENE) 20:46:57 145.935
Cosmos 2504 08 Dec 20:42:04 20:50:33 78° 280° (W) 20:59:30 435.465 / 435.565
SO-50 08 Dec 20:43:24 20:48:07 62° 309° (NW) 20:52:47 436.795
CUSAT 1 08 Dec 20:53:04 20:56:49 57° 261° (W) 21:01:45 437.405
SEEDS 08 Dec 20:56:19 20:59:19 19° 268° (W) 21:02:20 437.485
CUBEBUG 2 08 Dec 20:58:16 21:02:33 33° 264° (W) 21:06:48 437.445
DELFI C3 08 Dec 20:59:16 21:02:50 35° 70° (ENE) 21:06:26 145.870
COMPASS 1 08 Dec 21:00:30 21:03:53 24° 266° (W) 21:07:17 437.405
Cosmos 2491 08 Dec 21:03:11 21:06:19 12° 289° (WNW) 21:09:27 435.465 / 435.565
CINEMA 3 08 Dec 21:05:00 21:05:25 10° 275° (W) 21:05:49 145.822/145.860
Oscar 11 08 Dec 21:05:03 21:09:21 71° 258° (WSW) 21:13:41 145.826/435.025
PCSat 08 Dec 21:10:21 21:15:29 44° 246° (WSW) 21:20:36 145.827
AIST 1 08 Dec 21:24:40 21:27:33 17° 292° (WNW) 21:30:28
PRISM 08 Dec 21:25:30 21:29:16 32° 97° (E) 21:33:00 437.425
ISS 08 Dec 21:27:03 21:30:23 73° 29° (NNE) 21:33:40 145.825
STRAND 1 08 Dec 21:29:02 21:33:02 24° 298° (WNW) 21:37:00 437.568
YUBILEINY 08 Dec 21:29:59 21:36:52 25° 298° (WNW) 21:43:50 435.215
HO-68 08 Dec 21:31:35 21:35:28 15° 273° (W) 21:39:22 435.675
HUMSAT D 08 Dec 21:33:56 21:37:58 47° 72° (ENE) 21:41:58 437.325/437.525
UWE-3 08 Dec 21:35:16 21:38:51 22° 267° (W) 21:42:24 435.000/436.395/437.385
TIGRISAT 08 Dec 21:47:27 21:49:22 13° 89° (E) 21:51:15 435.000
ANTELSAT 08 Dec 21:49:22 21:51:42 14° 89° (E) 21:54:00 437.575/2403.000
ESTCUBE 1 08 Dec 22:01:57 22:04:48 17° 62° (ENE) 22:07:40 437.505/2401.250
DANDE 08 Dec 22:09:33 22:12:04 25° 263° (W) 22:15:02 436.750
ZACube-1 08 Dec 22:10:37 22:13:14 15° 270° (W) 22:15:51 437.345
CUBEBUG 1 08 Dec 22:14:12 22:16:26 14° 60° (ENE) 22:18:40 437.445
FUNcube-1 08 Dec 22:16:48 22:19:11 14° 270° (W) 22:21:34 145.935
SO-50 08 Dec 22:26:53 22:29:31 15° 330° (NNW) 22:32:07 436.795
VELOX 1 08 Dec 22:32:39 22:35:09 15° 61° (ENE) 22:37:40 145.980
DELFI C3 08 Dec 22:34:54 22:37:46 19° 267° (W) 22:40:38 145.870
JAS-2 08 Dec 22:39:18 22:40:20 10° 87° (E) 22:41:23 435.910
Cosmos 2504 08 Dec 22:39:49 22:45:36 19° 303° (WNW) 22:51:34 435.465 / 435.565
SPROUT 08 Dec 22:43:42 22:45:29 12° 60° (ENE) 22:47:15 437.525
50 SAT 08 Dec 22:50:36 22:52:23 13° 64° (ENE) 22:54:10 437.505
UNISAT 6 08 Dec 22:53:07 22:57:30 67° 102° (ESE) 23:01:46 437.425
PRISM 08 Dec 23:01:01 23:04:25 25° 294° (WNW) 23:07:48 437.425
ISS 08 Dec 23:04:14 23:06:33 18° 225° (SW) 23:08:52 145.825
HUMSAT D 08 Dec 23:11:09 23:13:49 16° 269° (W) 23:16:30 437.325/437.525
QB50P1 08 Dec 23:13:45 23:15:33 12° 89° (E) 23:17:21 145.935-145.965
DUCHIFAT 1 08 Dec 23:14:07 23:14:40 10° 88° (E) 23:15:13 145.980
TIGRISAT 08 Dec 23:22:11 23:26:33 65° 287° (WNW) 23:30:47 435.000
ANTELSAT 08 Dec 23:24:31 23:28:50 58° 287° (WNW) 23:33:03 437.575/2403.000
AISAT 08 Dec 23:30:03 23:34:23 55° 72° (ENE) 23:38:45 437.250
POPSAT HIP 1 08 Dec 23:34:28 23:37:39 20° 93° (E) 23:40:49 437.405
Cosmos 2499 08 Dec 23:34:38 23:41:20 26° 79° (E) 23:48:08 435.465 / 435.565
ESTCUBE 1 08 Dec 23:36:46 23:41:10 57° 259° (W) 23:45:36 437.505/2401.250
PHONESAT 2.4 08 Dec 23:38:41 23:39:54 12° 157° (SSE) 23:41:06 2401.200-2431.200
CUBEBUG 1 08 Dec 23:47:47 23:52:08 71° 258° (WSW) 23:56:33 437.445
TISAT 1 08 Dec 23:54:33 23:56:14 12° 59° (ENE) 23:57:54 437.305
BUGSAT 1 08 Dec 23:57:22 23:58:59 12° 89° (E) 00:00:34 437.445
VELOX 1 09 Dec 00:06:42 00:11:06 66° 259° (W) 00:15:32 145.980
DX 1 09 Dec 00:09:30 00:13:51 75° 74° (ENE) 00:18:14 434.975-435.025
GONETS M04 09 Dec 00:09:31 00:17:13 37° 85° (E) 00:24:56
UKube-1 09 Dec 00:10:31 00:14:43 57° 73° (ENE) 00:19:00 .
SPROUT 09 Dec 00:16:29 00:20:46 78° 256° (WSW) 00:25:07 437.525
JAS-2 09 Dec 00:20:58 00:26:12 86° 105° (ESE) 00:31:43 435.910
50 SAT 09 Dec 00:21:58 00:25:19 43° 261° (W) 00:28:42 437.505
NANOSAT C BR1 09 Dec 00:26:05 00:30:20 70° 103° (ESE) 00:34:30 145.865
UNISAT 6 09 Dec 00:31:21 00:33:40 14° 300° (WNW) 00:35:56 437.425
QB50P2 09 Dec 00:35:04 00:39:20 82° 287° (WNW) 00:43:33 145.880/145.840
POLYITAN 1 09 Dec 00:35:31 00:39:47 86° 284° (WNW) 00:43:59 437.675
M-CUBED/EXP-1 PRIME 09 Dec 00:38:36 00:40:40 13° 52° (NE) 00:42:47 437.505
DUCHIFAT 1 09 Dec 00:46:39 00:50:53 76° 286° (WNW) 00:55:03 145.980
QB50P1 09 Dec 00:47:33 00:51:46 64° 287° (WNW) 00:55:56 145.935-145.965
AO-85 09 Dec 00:48:27 00:51:25 16° 111° (ESE) 00:54:17 145.980
AISAT 09 Dec 01:08:30 01:11:12 16° 269° (W) 01:13:55 437.250
POPSAT HIP 1 09 Dec 01:09:38 01:13:35 38° 290° (WNW) 01:17:29 437.405
PHONESAT 2.4 09 Dec 01:12:16 01:14:36 27° 174° (S) 01:16:56 2401.200-2431.200
SWISSCUBE 09 Dec 01:16:28 01:20:06 22° 63° (ENE) 01:23:43 437.505
BEESAT 09 Dec 01:20:12 01:23:47 22° 63° (ENE) 01:27:23 436.000
Cosmos 2499 09 Dec 01:24:49 01:33:29 78° 280° (W) 01:42:28 435.465 / 435.565
TISAT 1 09 Dec 01:27:00 01:31:15 78° 258° (WSW) 01:35:32 437.305
O/OREOS (USA 219) 09 Dec 01:28:30 01:32:59 64° 64° (ENE) 01:37:24 437.305
BUGSAT 1 09 Dec 01:30:38 01:34:48 65° 286° (WNW) 01:38:53 437.445
UKube-1 09 Dec 01:48:44 01:51:08 14° 269° (W) 01:53:32 .
ITUPSAT 1 09 Dec 01:49:02 01:53:26 38° 68° (ENE) 01:57:51 437.325
DX 1 09 Dec 01:49:11 01:50:33 11° 271° (W) 01:51:55 434.975-435.025
AUBIESAT-1 09 Dec 01:55:11 01:59:21 54° 66° (ENE) 02:03:46 437.475
MOZHAYETS 4 09 Dec 01:59:31 02:01:32 13° 59° (ENE) 02:03:34
NANOSAT C BR1 09 Dec 02:03:32 02:05:29 13° 300° (WNW) 02:07:26 145.865
Oscar 19 09 Dec 02:06:59 02:12:11 64° 102° (ESE) 02:17:19 437.125/150
JAS-2 09 Dec 02:08:04 02:10:40 14° 303° (WNW) 02:13:18 435.910
M-CUBED/EXP-1 PRIME 09 Dec 02:10:10 02:14:23 88° 253° (WSW) 02:18:56 437.505
